Probability
0 0 0 0 0 0 0 0 0 0 0 0 0 0 0 0 0 2 6 6 2 2 6 10 11 11 12 12 10 12 14 12 10 9 6 4 2 0 0 0 0 0 0 0
0 0 0 0 0 0 0 0 0 0 0 0 0 0 0 0 0 1 4 4 2 1 4 8 10 11 12 13 11 11 12 11 10 9 7 5 2 1 0 0 0 0 0 0
0 0 0 0 0 0 0 0 0 0 0 0 0 0 0 0 0 0 2 2 1 1 2 5 7 9 10 11 10 10 11 12 11 10 7 5 3 1 0 0 0 0 0 0
0 0 0 0 0 0 0 0 0 0 0 0 0 0 0 0 0 0 1 1 1 0 1 2 4 5 6 8 10 11 12 13 12 9 7 4 3 2 1 0 0 0 0 0
0 0 0 0 0 0 0 0 0 0 0 0 0 0 0 0 0 0 0 0 0 0 0 0 2 3 4 6 9 11 12 12 10 9 6 4 3 3 2 1 0 0 0 0
0 0 0 0 0 0 0 0 0 0 0 0 0 0 0 0 0 0 0 0 0 0 0 0 1 3 3 5 7 10 11 10 10 9 7 5 4 4 4 2 1 1 0 1
0 0 0 0 0 0 0 0 0 0 0 0 0 0 0 0 0 0 0 0 0 0 0 1 3 5 5 6 9 12 12 11 10 9 8 6 6 6 5 3 3 2 2 2
0 0 0 0 0 0 0 0 0 0 0 0 0 0 0 0 0 0 0 0 0 0 0 2 4 6 6 8 12 14 14 12 10 9 8 7 6 6 4 3 3 3 3 3
0 0 0 0 0 0 0 0 0 0 0 0 0 0 0 0 0 0 0 0 0 0 0 2 4 6 6 7 11 14 13 12 10 9 8 8 7 6 4 3 3 3 3 3
0 0 0 0 0 0 0 0 0 0 0 0 0 0 0 0 0 0 0 0 0 0 0 1 4 6 6 6 9 11 11 10 9 9 8 9 9 8 5 3 3 3 3 4
0 0 0 0 0 0 0 0 0 0 0 0 0 0 0 0 0 0 0 0 0 0 0 1 3 5 5 4 6 8 10 9 9 10 10 11 13 12 8 4 3 3 4 4
0 0 0 0 0 0 0 0 0 0 0 0 0 0 0 0 0 0 0 0 0 0 1 1 2 4 5 5 5 7 9 9 10 12 15 17 18 16 12 8 6 5 4 4
0 0 0 0 0 0 0 0 0 0 0 0 0 0 0 0 0 0 0 0 0 0 1 2 2 4 6 7 7 7 9 10 12 16 20 23 25 24 20 15 12 10 8 7
0 0 0 0 0 0 0 0 0 0 0 0 0 0 0 0 0 0 0 0 0 1 2 2 2 4 5 7 7 8 10 12 15 19 24 29 34 33 28 24 19 15 13 12
0 0 0 0 0 0 0 0 0 0 0 0 0 0 1 2 1 0 0 0 0 2 3 4 4 5 6 8 10 12 14 17 20 24 28 34 38 36 32 28 22 17 14 12
0 0 0 0 0 0 0 0 0 0 0 0 0 1 2 3 2 1 0 0 0 2 5 8 10 12 15 16 18 22 25 29 33 35 36 38 38 35 31 28 23 18 14 12
1 1 1 0 0 0 0 0 0 0 0 1 2 3 4 3 3 3 2 2 3 5 9 14 19 24 28 28 29 30 34 40 46 47 45 41 38 35 31 27 23 19 16 14
3 3 2 0 0 0 0 0 0 0 0 2 4 4 4 3 3 5 6 7 8 9 14 22 28 33 36 37 36 36 38 42 47 50 49 45 41 38 34 29 24 21 19 18
4 3 2 0 0 0 0 0 0 0 0 2 3 3 2 2 3 5 8 10 12 15 20 26 32 37 41 41 41 42 42 42 45 48 48 44 40 37 33 29 25 23 20 19
3 3 1 0 0 0 0 0 0 0 1 2 2 1 1 2 4 5 7 11 14 18 23 26 31 36 39 40 43 44 41 40 42 43 41 36 32 30 29 28 28 24 19 17
4 2 1 0 0 0 1 1 1 1 2 2 2 1 2 5 5 5 7 11 15 18 20 22 26 29 29 31 36 37 33 30 30 30 28 24 20 18 20 25 28 24 18 15
3 2 1 1 1 2 2 3 3 3 3 2 2 2 3 5 5 5 6 9 12 14 15 16 18 18 17 17 22 25 23 18 16 16 15 14 11 9 11 17 21 21 18 14
2 2 1 1 3 3 3 3 4 3 2 1 2 3 3 4 4 4 5 6 6 8 10 11 10 9 7 6 8 12 12 10 8 8 9 9 8 7 8 10 14 16 15 12
1 1 1 1 2 3 3 3 2 1 1 1 2 3 3 3 3 3 3 3 4 5 6 6 6 5 3 2 2 4 4 5 5 6 7 8 8 9 10 12 12 13 12 11
0 0 0 0 1 1 1 1 1 0 0 1 2 2 2 2 2 3 3 2 2 2 3 3 4 4 3 2 2 2 1 2 3 3 4 6 6 7 9 10 11 9 9 8
0 0 0 1 2 2 1 0 0 1 1 1 1 1 1 1 2 3 3 2 1 1 2 3 3 3 3 3 3 2 1 1 1 1 2 3 3 3 4 6 7 6 5 4
Wind_Speed
6 9 8 4 6 9 11 11 12 7 2 6 8 7 3 6 8 8 9 10 10 10 10 10 9 9 10 10 10 10 10 9 8 7 7 7 7 6 5 5 6 6 5 5
9 11 6 6 7 9 10 11 10 3 0 6 7 8 3 5 8 8 9 9 10 11 11 11 11 11 11 11 11 10 10 10 9 7 6 5 6 5 5 5 6 6 5 5
14 6 2 7 9 10 10 9 10 9 5 6 8 5 5 5 7 8 9 10 11 12 14 13 12 12 12 12 12 10 11 10 10 10 7 6 5 5 6 6 6 6 6 5
11 9 7 10 9 9 9 6 8 8 9 4 4 6 4 5 7 9 10 11 12 13 13 13 13 13 13 13 12 11 11 11 10 10 9 10 7 6 6 6 6 7 6 6
10 7 8 11 8 7 6 4 6 7 8 8 3 7 3 4 4 7 10 11 13 14 14 14 14 14 14 13 12 12 12 11 11 10 10 9 7 6 5 6 7 7 6 6
15 9 8 9 5 4 3 6 6 7 8 5 3 6 2 2 1 4 9 11 12 13 14 14 14 14 13 13 12 12 13 12 12 11 11 10 8 7 7 7 7 7 6 6
15 13 9 7 7 6 7 8 6 5 4 2 2 5 3 3 1 3 7 11 12 12 13 14 15 15 14 14 14 14 14 13 13 13 12 11 10 9 9 8 7 6 5 5
12 11 9 8 9 6 6 8 7 7 7 6 1 3 3 3 2 3 6 10 12 13 13 14 15 15 15 16 16 15 15 15 14 14 12 11 10 8 7 8 6 6 5 4
10 8 4 5 5 6 5 6 7 9 8 7 3 1 2 5 5 6 7 10 12 13 14 14 15 16 16 16 16 16 16 15 15 14 13 12 11 9 7 8 7 6 5 5
11 9 6 6 6 4 6 5 4 7 7 7 4 3 1 3 5 7 8 10 11 12 13 14 14 16 15 15 15 16 16 15 15 15 13 11 12 11 9 9 8 6 6 6
11 10 7 8 9 8 7 7 7 7 7 8 7 3 5 1 3 5 8 9 11 13 13 14 13 14 15 15 15 15 15 15 14 14 13 12 11 11 10 9 9 8 8 8
9 8 8 8 2 4 8 8 8 8 7 7 8 3 6 1 2 3 5 8 10 12 13 13 14 14 14 15 15 15 15 15 15 14 13 13 11 11 11 11 10 10 9 9
8 7 8 7 7 7 8 8 9 8 7 7 9 2 6 2 1 2 4 6 8 11 12 13 14 14 14 14 14 15 15 15 15 14 14 13 13 12 12 11 10 10 10 9
6 7 10 9 4 4 7 9 9 9 8 8 8 7 2 1 1 1 2 5 8 11 12 13 14 14 14 14 14 14 14 14 14 14 14 14 13 13 12 11 11 10 10 10
7 8 9 9 5 6 8 9 10 11 12 12 10 8 5 3 3 3 2 3 7 9 12 13 13 13 13 13 13 13 12 12 12 13 13 13 12 12 11 11 11 11 10 10
6 6 7 9 8 8 10 10 10 11 12 12 12 9 3 3 3 3 2 2 4 6 9 11 12 12 12 12 12 12 12 11 11 12 12 12 11 11 11 11 11 10 10 10
8 6 7 9 7 9 12 9 10 10 9 9 10 4 2 2 3 4 3 2 1 2 4 7 9 10 10 10 11 11 11 11 12 12 12 12 12 12 11 11 11 10 10 10
6 7 6 8 7 11 1 3 3 7 6 5 5 3 2 2 2 4 4 3 3 2 1 2 4 6 7 7 8 8 9 11 11 11 11 11 11 11 10 10 10 10 9 9
4 6 7 7 10 9 4 3 3 5 4 1 2 0 1 3 4 6 7 6 5 4 3 2 1 3 4 5 6 7 8 8 9 9 9 10 10 10 10 10 10 9 9 9
5 7 8 7 8 7 2 5 1 4 4 4 1 1 2 3 3 6 7 6 6 6 5 5 5 6 5 4 5 6 6 6 6 6 6 7 7 8 9 9 8 8 8 9
9 7 8 8 7 4 6 4 4 5 3 4 2 2 2 3 6 6 6 7 8 8 9 8 8 8 7 6 6 6 5 3 2 3 4 5 5 6 6 6 6 6 7 7
6 6 6 6 7 2 6 3 2 4 5 3 4 4 7 9 9 8 8 8 9 10 11 10 9 9 8 7 6 7 5 3 3 3 3 3 3 3 3 4 4 5 6 7
2 3 3 2 2 6 2 3 4 2 4 4 5 8 9 10 10 10 9 9 9 10 10 9 10 11 10 8 7 8 6 4 3 3 2 2 2 1 2 3 4 5 5 6
3 1 3 3 2 3 3 2 2 3 5 6 8 9 10 11 11 10 9 9 9 9 9 9 10 10 9 8 8 7 5 4 4 4 3 2 1 1 1 2 3 4 4 5
2 2 3 4 1 2 4 3 3 6 8 10 11 11 11 12 11 10 9 8 8 8 8 9 9 9 9 9 8 8 6 5 5 4 3 2 2 1 1 1 2 3 3 3
4 4 5 4 4 3 4 3 6 9 10 11 12 12 11 11 11 10 9 8 8 8 7 8 9 9 9 9 9 8 7 6 5 4 3 2 2 2 2 2 2 2 4 3
Wind_Direction
213 245 248 299 314 309 303 300 305 327 2 265 274 282 253 186 201 197 190 187 186 181 170 166 175 180 180 178 174 174 171 168 166 164 167 164 164 163 158 155 148 154 146 141
231 237 260 299 291 285 288 293 304 324 11 276 292 284 237 195 204 203 196 190 185 175 167 172 180 182 186 184 177 174 174 174 178 172 167 166 156 163 155 152 150 162 159 163
243 252 289 281 283 294 296 306 320 322 304 236 283 257 163 176 198 201 201 191 185 179 175 178 184 183 183 184 181 179 176 175 180 169 162 154 153 164 162 165 167 171 173 176
247 260 262 273 287 299 300 340 307 297 286 310 310 311 129 166 192 198 200 193 188 181 181 180 183 186 186 183 180 179 174 176 176 174 176 177 182 182 175 177 167 170 181 182
232 231 258 278 297 295 312 324 290 284 283 286 258 293 86 160 201 192 192 192 190 185 183 183 185 187 187 183 178 176 175 177 177 183 182 188 192 184 171 174 161 181 177 188
258 259 270 279 288 280 252 248 242 243 258 276 6 302 15 96 241 176 179 186 187 183 182 185 185 184 184 180 178 176 177 179 180 186 188 196 191 184 176 183 174 189 180 189
236 236 227 242 244 207 231 266 271 262 257 342 61 287 11 55 139 180 174 180 183 181 181 183 184 184 183 183 182 180 180 182 184 188 191 195 194 189 189 193 187 199 190 189
232 228 206 211 243 261 241 275 290 308 320 330 203 297 40 95 137 170 172 174 179 181 182 184 186 186 185 185 183 183 184 187 187 191 193 195 195 200 196 197 197 197 206 193
238 238 165 200 230 258 241 253 298 286 282 286 305 312 144 149 166 171 173 174 180 183 184 185 186 187 187 188 186 187 187 189 190 193 193 195 197 205 195 183 200 197 197 185
248 255 215 180 197 212 278 278 248 272 296 297 297 289 27 146 167 171 178 183 181 183 185 187 187 189 189 190 188 189 189 191 192 193 195 194 196 198 194 194 195 195 193 192
234 242 217 200 222 225 198 219 249 271 287 294 303 344 56 72 178 180 181 185 183 185 185 184 186 188 189 190 187 189 191 194 195 196 196 197 195 195 194 195 194 194 196 194
209 235 243 228 214 277 245 241 232 256 263 261 287 322 85 75 181 178 182 181 184 185 184 183 183 184 188 191 191 191 194 195 196 195 194 196 195 195 197 197 197 195 197 200
176 212 231 217 198 201 229 229 239 255 269 262 270 288 112 128 186 166 187 180 184 187 186 184 183 185 189 191 193 194 197 198 197 193 194 195 196 196 200 200 197 197 200 205
207 228 250 262 269 203 213 213 223 238 252 260 262 288 284 302 308 239 207 197 192 191 190 190 188 190 192 194 195 198 199 198 196 193 194 195 197 197 197 196 195 198 201 205
216 230 240 259 258 257 253 238 224 236 258 274 283 286 304 349 357 338 284 225 207 197 196 197 197 196 197 198 199 201 201 199 197 195 198 198 196 195 195 195 196 198 203 208
215 243 243 245 241 248 253 250 244 242 254 263 272 281 347 30 20 9 344 253 220 209 206 203 203 201 200 202 201 200 200 195 192 195 199 195 190 190 193 194 196 199 204 212
195 213 236 248 229 243 243 242 246 244 249 265 274 297 41 1 21 21 11 353 278 236 223 211 206 205 204 203 202 200 197 191 190 195 196 190 190 191 193 194 197 201 205 209
208 215 234 249 232 243 251 55 278 264 264 270 279 309 341 25 64 59 37 23 16 0 287 211 201 194 195 196 196 194 192 189 190 193 194 191 190 191 190 196 201 205 209 214
217 214 236 244 241 247 203 178 238 255 261 352 297 349 109 124 144 96 53 39 36 32 36 61 111 143 148 160 168 171 178 182 187 192 192 192 190 190 191 198 204 206 212 219
190 223 237 233 255 256 120 107 108 257 217 94 85 131 155 204 223 80 47 44 48 50 57 65 73 80 90 104 128 143 152 166 182 185 185 185 188 193 197 202 207 209 217 227
190 205 231 238 249 260 84 121 200 248 68 85 88 117 132 66 54 78 66 59 59 60 63 67 71 72 71 80 102 111 113 127 151 162 166 172 182 199 205 205 207 214 221 231
212 207 215 231 240 211 106 172 278 46 86 101 101 109 104 101 101 95 83 73 69 69 68 69 72 71 67 68 82 88 83 81 97 117 139 153 170 203 203 206 213 220 232 235
258 328 310 288 35 68 67 43 58 100 124 120 118 117 118 115 109 100 91 81 73 70 68 67 71 69 61 58 62 68 58 57 72 89 102 117 137 174 221 223 223 226 227 248
153 358 281 267 84 72 73 69 117 130 124 119 117 119 118 114 109 101 93 86 78 71 71 71 71 70 64 57 57 58 52 53 70 75 72 83 109 157 187 243 248 256 256 259
30 209 258 255 34 90 72 55 105 122 121 117 113 112 112 112 107 104 97 87 82 78 75 74 76 76 72 67 61 53 50 52 61 65 63 62 72 56 281 260 296 288 300 318
3 327 308 342 24 355 44 67 123 129 126 121 118 114 110 107 106 102 96 90 86 82 79 75 72 71 68 66 61 54 49 48 47 49 39 27 17 12 325 314 288 220 252 257